Temp
11 11 11 11 12 12 12 13 13 12 12 12 12 12 12 12 12 12 12 12 12 12 12 12 12 11 12 12 12 11 11 12 12 12 12 12 12 11 11 11 12 12 12 12 12 11 11 11 11 12 12 12 12 12 12 12 11 11 11 11 11 11 11 11 11 12 12 12 12 12 13 12 12 12 11 11 11 11 11 11 11 11 11 11 11
11 11 11 11 12 12 12 12 12 12 12 12 12 12 12 12 12 12 12 12 12 12 12 12 11 11 11 12 11 11 11 11 11 12 12 12 12 11 10 10 11 11 12 12 12 11 11 11 11 11 12 12 12 12 12 12 11 11 11 11 11 11 11 11 12 12 12 12 12 12 12 12 12 11 11 11 11 11 11 11 11 11 11 11 11
10 10 10 11 11 11 11 11 11 11 12 12 12 12 12 12 12 12 12 12 12 12 12 12 12 11 11 11 11 11 11 11 11 12 12 12 12 11 11 10 11 11 11 11 11 11 11 11 11 11 11 12 12 12 12 11 11 11 11 11 11 12 12 12 12 12 12 12 12 12 12 12 12 12 11 11 12 11 11 11 11 10 10 10 10
9 8 9 9 9 10 10 10 11 11 12 12 11 12 12 12 12 12 12 12 12 12 12 12 12 11 11 11 11 11 11 11 11 12 12 12 12 11 11 11 11 11 11 11 11 11 11 11 11 11 11 11 12 12 12 11 11 11 11 11 11 12 12 12 12 12 12 12 12 12 12 12 12 12 11 11 11 11 11 11 10 10 10 10 10
7 8 8 8 8 9 10 10 11 12 11 11 11 12 12 12 12 12 12 12 12 12 12 12 12 11 11 11 11 11 11 11 11 11 11 11 11 11 11 11 11 11 11 11 11 11 12 11 11 11 11 12 12 12 12 11 11 11 11 11 11 12 11 11 12 12 12 12 12 12 12 12 12 11 11 11 11 11 11 10 10 10 10 10 10
7 8 7 7 8 9 10 11 11 11 11 11 11 12 12 12 12 12 12 12 12 12 12 11 11 11 11 11 11 11 11 11 11 11 11 11 11 11 11 11 11 12 12 12 12 12 12 12 12 12 12 12 12 11 11 11 11 11 11 11 11 11 11 11 12 12 12 12 11 11 12 11 11 11 11 11 11 11 11 10 10 10 10 10 10
7 7 7 7 8 9 10 11 11 11 11 11 11 12 12 12 12 12 12 12 12 12 11 11 11 11 11 11 10 10 10 10 11 11 11 11 11 11 11 11 11 11 11 11 12 11 12 12 12 11 11 12 11 11 11 11 11 11 11 11 11 11 11 11 12 12 12 12 11 11 11 11 11 11 11 11 10 11 11 10 10 10 10 9 9
7 7 7 7 8 9 10 11 11 11 11 11 11 11 11 11 11 11 11 12 12 12 11 11 11 11 10 10 10 10 10 10 11 11 11 11 11 11 11 11 11 11 11 11 11 11 12 11 11 11 11 11 11 11 11 11 11 11 11 11 11 11 11 11 12 12 12 12 11 11 11 11 11 11 11 10 10 10 11 10 10 10 9 9 9
7 7 6 7 8 9 10 10 10 10 10 11 11 11 11 11 11 11 11 11 11 11 10 10 9 9 9 9 9 9 10 10 11 11 11 11 11 11 11 11 11 11 11 11 11 11 12 12 11 11 11 12 11 11 11 11 11 11 11 11 11 11 11 11 12 12 12 12 11 11 11 10 10 10 11 11 11 11 11 10 10 10 9 9 9
7 6 6 7 8 9 10 10 10 10 10 10 10 10 10 10 10 11 11 10 9 8 8 9 9 9 9 9 9 9 10 11 11 11 11 11 11 11 11 11 11 11 11 11 11 11 11 11 11 11 11 12 12 12 11 11 11 11 11 11 11 11 11 11 11 11 11 11 11 11 10 10 10 11 11 11 11 11 11 10 10 9 9 9 9
7 6 6 6 7 9 10 10 10 10 10 10 10 10 10 10 10 10 10 9 8 8 8 8 9 9 9 9 9 10 10 11 11 11 11 11 11 11 11 10 10 10 10 11 11 11 11 11 11 11 11 11 11 11 11 11 11 11 11 11 11 11 11 11 11 11 11 11 11 11 11 11 11 11 11 11 11 10 10 10 10 9 9 9 9
6 6 6 6 8 9 10 10 9 10 10 10 10 10 10 10 10 10 9 8 8 8 8 9 9 9 9 10 10 10 10 10 10 11 11 11 11 11 11 10 10 10 10 10 10 10 10 10 10 11 11 11 11 11 11 11 10 11 11 11 10 10 10 10 11 11 11 11 11 11 11 11 11 11 11 11 11 11 10 10 10 10 9 10 10
6 5 6 6 8 9 9 9 9 9 9 9 9 9 9 9 9 9 8 8 8 8 8 9 9 9 10 10 10 10 10 10 10 10 10 10 11 11 11 11 10 10 10 9 9 10 10 10 10 10 11 11 11 11 11 10 10 10 10 10 10 10 10 10 10 10 10 10 11 11 11 11 11 11 11 10 11 11 10 10 10 10 9 10 10
6 5 6 7 8 9 9 9 9 9 9 9 9 9 9 9 8 8 8 8 8 9 9 9 9 9 10 9 9 9 9 9 9 9 9 10 10 10 10 10 10 9 9 9 9 9 10 10 10 10 10 10 10 10 10 10 10 10 10 10 10 10 10 10 10 10 10 10 10 10 10 10 10 10 10 10 10 10 10 10 10 10 10 9 10
6 5 6 7 8 9 9 9 9 9 9 9 9 9 9 8 8 7 7 8 8 9 9 9 9 9 9 9 9 9 8 8 8 9 9 9 9 9 10 10 9 9 9 9 9 9 9 9 9 9 9 9 9 9 9 9 9 9 9 9 9 9 10 10 10 10 10 10 10 10 10 10 10 10 9 9 9 10 10 10 10 10 10 9 9
6 5 6 7 8 8 9 9 9 9 9 9 9 9 9 8 7 7 7 7 7 8 8 8 8 8 8 8 8 8 8 8 8 9 9 9 9 9 9 9 9 9 9 9 9 9 9 8 8 8 8 8 8 8 8 8 9 9 9 9 9 9 9 9 9 9 9 9 9 9 9 9 9 9 9 9 8 9 9 10 10 10 9 9 9
6 5 5 6 6 7 8 9 9 8 8 9 9 9 8 8 7 6 6 6 6 7 7 7 7 7 7 7 7 7 7 7 8 8 8 8 8 9 9 9 9 8 8 8 8 8 7 7 8 8 8 7 7 7 7 8 8 8 8 8 8 8 7 7 8 8 8 8 8 8 9 9 9 8 8 8 8 8 9 10 9 9 9 9 9
5 5 5 5 5 6 7 8 8 8 8 8 8 8 8 8 7 6 6 6 6 6 6 6 6 6 6 6 7 7 7 7 7 7 8 8 8 8 8 9 8 8 7 7 7 6 6 6 7 7 7 7 7 7 7 8 8 7 7 7 7 7 6 6 7 7 7 7 7 8 8 8 8 8 8 8 7 8 9 9 9 8 8 8 9
5 4 4 4 4 5 7 8 8 8 8 8 8 8 8 7 6 6 6 6 6 5 5 6 6 6 5 6 6 6 6 6 6 7 7 7 7 8 8 8 8 7 6 6 6 6 6 6 6 6 6 6 7 7 7 7 7 7 7 7 7 7 6 6 6 7 7 7 7 7 7 7 7 8 7 7 7 7 8 8 8 8 8 7 8
4 4 4 4 4 6 7 7 7 7 7 7 7 7 7 6 6 5 5 5 5 5 5 5 5 5 5 6 6 6 6 6 6 6 6 7 7 7 7 7 7 6 6 6 6 6 5 5 5 6 6 6 7 7 7 7 7 7 7 7 7 6 6 6 6 7 7 7 7 6 6 6 7 7 7 7 7 7 8 8 8 8 7 7 7
4 4 4 4 4 5 6 7 7 7 7 7 7 7 6 6 6 5 5 5 5 5 5 5 5 5 5 6 6 6 6 5 5 6 6 6 6 6 7 6 6 6 6 6 5 5 5 5 5 5 6 6 6 6 6 6 7 7 6 6 5 5 6 6 6 6 6 7 6 6 6 6 6 6 6 7 7 7 7 7 7 7 6 6 6
4 4 4 4 4 5 5 6 6 6 6 6 6 6 5 5 5 5 5 5 5 5 5 5 5 5 5 5 5 5 5 5 5 5 5 5 5 6 6 5 5 6 6 6 5 4 4 4 4 4 5 5 5 5 5 5 6 5 5 5 5 5 6 6 6 6 6 6 6 6 6 6 6 6 6 6 6 6 6 6 6 6 6 6 6
4 4 4 4 4 4 4 5 5 5 5 5 5 5 5 5 5 5 5 5 5 5 5 5 5 5 5 5 5 5 5 5 5 5 5 5 5 5 5 5 5 5 6 5 4 4 3 3 3 4 4 5 5 5 5 4 4 4 4 4 4 5 5 5 5 5 5 5 6 6 5 5 5 5 5 5 5 5 5 5 5 5 5 5 5
4 4 4 3 4 4 4 4 4 4 4 5 5 5 5 5 5 5 5 5 5 5 5 5 5 5 5 5 4 4 4 4 4 4 4 4 4 4 4 4 4 5 5 4 3 3 3 3 3 3 4 4 4 4 4 4 3 3 3 3 4 4 4 4 4 4 5 4 4 4 4 4 4 4 4 4 4 4 5 5 5 5 5 5 5
4 4 3 3 4 4 4 4 4 4 4 4 5 5 4 4 5 4 5 5 5 5 4 4 5 4 4 4 4 4 4 4 4 3 3 4 4 4 4 4 4 4 4 3 3 3 3 2 3 3 3 3 3 3 3 3 3 3 3 3 3 3 3 3 3 3 3 3 3 3 3 3 3 3 3 3 4 4 4 4 4 4 4 4 4
3 3 3 4 4 4 4 4 4 4 4 4 4 4 4 4 4 4 4 4 4 4 4 4 4 4 4 4 3 3 3 3 3 3 3 3 3 3 3 3 3 3 3 3 3 3 3 3 3 3 3 3 3 3 3 2 2 3 3 3 3 2 2 2 2 2 2 2 2 2 2 2 2 2 2 3 3 3 3 3 3 3 3 3 3
3 3 3 4 4 4 4 4 4 4 4 4 4 4 4 4 4 4 4 4 4 4 4 4 4 4 3 3 3 3 3 3 2 2 2 2 2 3 3 3 3 3 3 3 3 3 3 3 3 3 3 3 3 3 3 2 2 2 2 2 2 2 1 1 1 1 1 1 1 1 1 2 2 2 2 2 2 2 2 2 3 3 2 2 2
4 4 4 4 4 4 4 4 4 4 4 4 3 3 3 3 4 3 3 3 3 3 3 3 3 3 3 3 3 3 3 2 2 2 2 2 2 2 2 2 2 3 3 3 3 3 3 3 3 3 3 3 3 3 3 2 2 2 2 2 1 1 1 1 1 1 1 1 1 1 1 1 1 1 1 2 2 2 2 2 2 2 2 2 2
4 4 4 4 4 4 3 3 4 4 4 3 3 3 3 3 3 3 2 2 3 3 3 3 3 3 3 3 3 3 3 2 2 2 2 2 2 2 2 2 2 2 2 2 3 3 3 3 3 3 3 3 3 2 2 2 2 2 2 2 1 1 1 1 1 1 1 1 1 1 1 1 1 1 1 1 1 1 1 1 2 2 2 2 2
4 4 4 3 3 3 3 3 3 3 3 3 3 3 3 2 2 2 2 2 2 2 2 2 2 2 3 3 3 2 2 1 1 1 2 2 2 2 2 2 2 2 2 3 4 4 4 3 3 2 2 2 2 2 2 2 1 1 1 1 1 1 1 1 0 0 0 1 1 1 1 1 1 1 1 1 1 1 1 1 1 1 1 1 1
4 3 3 3 3 3 3 3 3 3 3 3 3 3 3 2 2 2 2 1 1 1 2 2 2 2 2 3 2 1 1 1 1 1 1 1 1 2 1 2 2 2 2 4 4 4 3 3 2 2 2 2 2 1 1 1 1 1 1 1 1 0 -0 -0 -0 -0 0 0 0 1 1 1 0 0 1 1 1 1 1 1 1 1 1 1 1
4 3 3 3 3 3 3 3 3 3 3 3 3 3 3 3 2 1 1 1 1 1 1 1 1 1 1 2 1 1 1 1 1 1 1 1 1 2 2 2 2 2 3 4 4 3 2 2 2 2 2 2 1 1 1 1 1 1 1 1 0 0 -0 -0 -0 -0 -0 -0 0 0 0 0 0 0 0 0 0 1 1 1 1 0 0 0 0
4 3 3 3 3 3 3 3 3 3 3 3 3 3 3 3 2 1 1 0 0 0 0 0 0 1 1 1 1 1 1 1 1 1 1 1 1 1 2 2 2 2 3 4 3 2 2 2 2 2 2 2 1 1 1 1 1 1 1 0 -0 -0 -1 -1 -0 -0 -0 -0 -0 -0 0 0 0 0 0 0 0 0 0 0 0 0 0 0 0
3 3 3 3 2 2 2 2 2 2 2 2 2 2 2 2 2 2 1 1 0 -0 -0 -0 -0 0 0 1 1 1 1 1 1 1 1 1 1 1 2 2 2 2 3 3 2 2 2 2 1 1 1 1 1 1 1 1 1 1 0 -0 -1 -1 -1 -1 -1 -1 -1 -0 -0 -0 -0 -0 -0 -0 0 0 0 0 0 0 0 0 0 0 0
3 3 2 2 2 2 2 2 2 2 2 2 2 2 2 1 1 1 1 1 0 0 -0 -0 -0 0 0 0 0 0 0 0 0 0 0 0 1 1 2 2 2 2 2 2 2 1 1 1 1 1 1 1 1 1 1 1 1 1 1 0 -0 -0 -0 -1 -1 -1 -1 -0 -0 -0 -0 -0 -0 -0 -0 -0 -0 0 0 0 0 0 0 0 -0
3 2 2 2 2 2 2 2 2 2 2 2 2 1 1 1 1 1 1 0 0 0 -0 -0 -0 -0 -0 -0 -0 -0 -0 0 0 0 0 0 1 1 2 2 2 1 1 1 1 1 1 1 1 1 1 1 1 1 1 1 1 1 1 1 0 -0 -1 -1 -1 -1 -1 -1 -1 -1 -1 -1 -1 -1 -1 -1 -0 -0 -0 -0 -0 -0 -0 -0 -0
3 2 2 2 2 2 2 2 2 2 1 1 1 1 1 1 1 0 0 -0 -0 -0 -0 -0 -0 -0 0 -0 -0 -0 0 0 0 1 1 1 1 1 2 2 1 1 1 1 1 1 1 1 1 1 1 1 0 0 0 0 1 1 0 0 -0 -1 -1 -2 -1 -1 -1 -1 -1 -1 -1 -1 -1 -1 -1 -1 -1 -1 -1 -1 -1 -1 -1 -1 -1
3 3 2 2 2 2 2 2 2 1 1 1 1 1 1 1 0 0 -0 -0 -1 -1 -1 -0 -0 0 0 0 0 0 0 0 1 1 1 1 1 1 1 1 1 1 1 1 1 1 1 1 1 1 0 0 0 0 0 0 0 0 -0 -0 -1 -1 -1 -2 -2 -1 -1 -1 -1 -1 -1 -1 -1 -1 -1 -1 -1 -1 -1 -1 -1 -1 -1 -1 -1
2 2 2 2 2 2 2 2 2 1 1 1 1 0 0 0 0 0 -0 -1 -1 -1 -1 -0 -0 0 0 0 0 0 1 1 1 1 1 1 1 1 1 1 1 1 1 1 1 1 1 1 1 0 0 0 0 0 0 0 0 0 -0 -0 -0 -1 -1 -1 -2 -2 -2 -1 -1 -1 -1 -1 -1 -2 -1 -1 -1 -1 -1 -1 -1 -1 -1 -1 -1
2 2 2 2 2 1 1 1 1 1 1 1 0 0 0 0 0 0 -0 -0 -1 -1 -0 -0 -0 0 0 0 0 0 1 1 1 1 1 1 1 1 1 1 1 1 1 0 0 0 0 0 0 0 0 0 0 -0 -0 -0 -0 -0 0 0 0 -0 -1 -1 -1 -2 -2 -2 -2 -2 -2 -2 -2 -2 -2 -2 -2 -2 -2 -2 -2 -1 -1 -1 -1
2 2 2 2 1 1 1 1 1 1 1 1 1 0 0 0 0 0 -0 -0 -0 -0 -0 -0 -0 -0 -0 0 0 0 0 1 1 1 1 1 1 1 1 1 1 1 1 0 0 -0 0 0 0 0 0 0 -0 -0 -0 -0 -0 -0 -0 -0 0 0 -0 -0 -1 -1 -1 -2 -2 -2 -2 -2 -2 -2 -2 -2 -2 -2 -2 -2 -2 -2 -2 -2 -1
2 2 2 2 1 1 1 1 1 1 1 1 1 1 0 0 0 0 0 0 -0 0 0 0 0 0 0 0 0 0 0 0 0 0 0 0 0 0 1 1 1 1 0 0 -0 -0 -0 -0 0 0 0 0 -0 -0 -0 -0 0 0 -0 -0 0 0 0 0 0 -0 -1 -1 -1 -2 -2 -2 -2 -2 -2 -2 -2 -2 -2 -2 -2 -2 -2 -2 -2
2 2 2 2 1 1 1 1 1 1 1 1 1 1 1 1 1 1 0 0 0 0 0 0 0 0 0 0 0 0 0 0 0 0 0 0 0 -0 0 0 0 0 0 -0 -0 -0 -0 -0 -0 -0 0 0 0 0 0 0 0 0 0 0 0 -0 -0 -0 -0 -0 -0 -1 -1 -1 -2 -2 -2 -2 -2 -2 -2 -2 -2 -2 -2 -2 -2 -2 -2
2 2 2 1 1 1 1 1 1 1 1 1 1 1 1 1 1 1 1 1 1 1 1 1 1 1 1 1 0 0 0 0 0 0 0 0 -0 -0 -0 -0 -0 -0 -0 -0 -0 -0 -0 -0 -0 -0 -0 -0 0 0 0 0 -0 -0 -0 -0 -0 -0 -0 -0 -0 -0 -0 -0 -1 -1 -1 -2 -2 -2 -3 -3 -3 -3 -2 -2 -2 -2 -2 -2 -2
2 2 2 1 1 1 1 1 1 1 1 1 1 1 1 1 1 1 1 1 1 1 1 1 1 1 1 1 1 1 1 0 0 0 0 0 -0 -0 -0 -0 -0 -0 -0 -0 -0 -0 -0 -0 -0 -0 -0 -0 -0 -0 -0 -0 -0 -0 -0 -0 -0 -0 -0 -0 -0 -0 -0 -0 -0 -1 -1 -1 -2 -2 -2 -3 -3 -3 -3 -3 -3 -3 -3 -3 -3
2 2 2 1 1 1 1 1 1 1 1 1 1 1 1 1 1 1 1 1 1 1 1 1 1 1 1 1 1 1 1 1 1 0 0 0 0 -0 -0 -0 -0 -0 -0 -0 -0 -0 -0 -1 -1 -1 -0 -0 -0 -0 -0 -1 -1 -1 -1 -1 -1 -1 -1 -0 -0 -0 -0 -0 -1 -1 -1 -1 -1 -2 -2 -2 -2 -3 -3 -3 -3 -3 -3 -3 -3
2 2 2 1 2 1 1 1 1 1 1 1 1 1 1 1 1 1 1 1 1 1 1 1 1 1 1 1 1 1 1 1 1 1 0 0 0 0 -0 -0 -0 -0 -0 -0 -1 -1 -1 -1 -1 -1 -1 -1 -1 -1 -1 -1 -1 -1 -1 -1 -1 -1 -1 -1 -1 -1 -1 -1 -1 -1 -1 -1 -1 -1 -1 -2 -2 -2 -2 -3 -3 -3 -3 -3 -3
1 2 1 2 2 2 2 2 1 1 1 2 2 2 2 2 2 2 2 2 2 2 1 1 1 1 1 1 1 1 1 1 1 1 1 1 0 0 0 -0 -0 -0 -0 -0 -1 -1 -1 -1 -1 -1 -1 -1 -1 -1 -1 -1 -1 -1 -1 -1 -1 -1 -1 -1 -1 -1 -1 -1 -1 -1 -1 -1 -1 -1 -1 -1 -1 -2 -2 -2 -3 -3 -3 -3 -3
2 2 2 2 2 2 2 2 2 2 2 2 2 2 2 2 2 2 2 2 2 2 2 2 2 2 1 2 1 1 1 1 1 1 1 1 0 0 0 0 -0 -0 -0 -0 -0 -1 -1 -1 -1 -1 -1 -1 -1 -1 -1 -1 -1 -1 -1 -1 -1 -1 -1 -1 -1 -1 -1 -1 -1 -1 -1 -1 -1 -1 -1 -1 -1 -1 -1 -2 -2 -2 -2 -3 -3
2 2 2 2 2 2 2 2 2 2 2 2 2 2 2 2 2 2 2 2 2 2 2 2 2 2 2 2 2 2 2 1 1 1 1 1 1 0 0 0 0 -0 -0 -0 -0 -0 -0 -0 -0 -1 -1 -1 -1 -1 -1 -1 -1 -1 -1 -1 -1 -1 -1 -1 -1 -1 -1 -1 -1 -1 -1 -1 -1 -1 -1 -1 -1 -1 -1 -1 -1 -2 -2 -2 -2
2 2 2 2 2 2 2 2 2 2 2 2 2 2 2 2 2 2 2 2 2 2 2 2 2 2 2 2 2 2 2 1 1 1 1 1 1 1 0 0 0 0 0 0 -0 -0 -0 -0 -0 -0 -0 -0 -0 -1 -1 -1 -1 -1 -1 -1 -1 -1 -1 -1 -1 -1 -1 -1 -1 -1 -1 -1 -1 -1 -1 -1 -1 -1 -1 -1 -1 -1 -2 -2 -2
Height
1516 1516 1516 1515 1515 1515 1514 1514 1513 1513 1513 1513 1512 1512 1512 1511 1511 1510 1509 1509 1508 1507 1506 1504 1503 1502 1501 1500 1499 1498 1497 1496 1494 1493 1491 1490 1488 1487 1486 1484 1484 1483 1483 1483 1483 1482 1482 1482 1482 1482 1482 1482 1483 1483 1485 1486 1486 1486 1487 1488 1488 1489 1491 1493 1495 1497 1498 1500 1502 1503 1505 1507 1509 1511 1513 1515 1518 1520 1522 1523 1525 1526 1528 1531 1533
1514 1514 1513 1513 1513 1512 1512 1512 1512 1512 1512 1512 1512 1511 1511 1510 1510 1509 1508 1507 1506 1505 1504 1503 1502 1501 1500 1499 1498 1497 1496 1494 1493 1492 1490 1488 1487 1486 1485 1484 1483 1482 1482 1481 1481 1481 1480 1480 1480 1480 1480 1480 1481 1481 1483 1484 1484 1485 1486 1486 1487 1488 1490 1491 1493 1495 1497 1499 1500 1501 1503 1505 1506 1508 1510 1511 1514 1517 1519 1521 1522 1524 1527 1529 1531
1512 1512 1512 1511 1511 1511 1511 1511 1511 1511 1511 1511 1511 1511 1510 1510 1509 1508 1507 1506 1505 1504 1503 1502 1501 1500 1499 1498 1497 1496 1495 1493 1492 1490 1489 1487 1486 1485 1484 1483 1482 1481 1481 1480 1479 1479 1478 1478 1478 1478 1478 1479 1479 1480 1481 1482 1483 1483 1484 1485 1485 1486 1488 1489 1491 1493 1495 1497 1498 1499 1500 1502 1504 1506 1507 1508 1510 1514 1517 1519 1521 1522 1524 1526 1528
1511 1511 1511 1510 1509 1510 1510 1510 1510 1510 1511 1510 1510 1510 1509 1509 1508 1507 1506 1505 1504 1503 1502 1501 1500 1499 1498 1497 1496 1495 1493 1492 1491 1490 1488 1487 1486 1484 1483 1483 1482 1481 1480 1479 1478 1477 1477 1477 1477 1477 1477 1477 1478 1479 1479 1481 1481 1482 1483 1484 1484 1485 1486 1487 1489 1491 1493 1495 1496 1497 1498 1499 1501 1503 1505 1506 1509 1512 1515 1517 1519 1521 1522 1524 1526
1510 1511 1510 1509 1509 1509 1509 1509 1510 1510 1510 1510 1510 1510 1509 1508 1507 1506 1505 1504 1503 1502 1501 1500 1499 1498 1497 1496 1495 1494 1493 1491 1490 1489 1488 1487 1485 1484 1483 1482 1481 1481 1480 1478 1477 1476 1476 1476 1476 1476 1476 1476 1477 1477 1478 1479 1480 1481 1482 1482 1483 1484 1484 1486 1487 1489 1491 1493 1494 1495 1496 1498 1499 1501 1503 1505 1507 1510 1513 1516 1517 1519 1520 1522 1524
1510 1510 1510 1509 1508 1509 1509 1509 1509 1510 1510 1510 1510 1509 1508 1507 1506 1505 1504 1504 1503 1502 1501 1500 1498 1498 1497 1496 1495 1493 1492 1491 1490 1488 1487 1486 1485 1484 1483 1482 1481 1480 1480 1478 1477 1476 1476 1475 1475 1475 1476 1476 1476 1476 1477 1478 1479 1479 1480 1481 1482 1483 1484 1485 1486 1487 1489 1491 1492 1493 1495 1496 1497 1498 1500 1503 1505 1507 1510 1513 1515 1516 1518 1519 1521
1510 1510 1509 1509 1508 1508 1509 1509 1509 1510 1510 1510 1509 1508 1508 1507 1506 1505 1504 1503 1502 1501 1500 1499 1498 1497 1496 1495 1494 1493 1492 1491 1490 1488 1487 1486 1485 1484 1483 1482 1481 1480 1480 1479 1478 1477 1476 1476 1475 1475 1475 1475 1475 1476 1476 1477 1477 1478 1479 1480 1481 1482 1483 1483 1484 1486 1487 1489 1490 1491 1493 1494 1495 1497 1499 1501 1504 1506 1507 1509 1511 1513 1514 1516 1519
1509 1510 1509 1508 1508 1508 1509 1509 1510 1510 1510 1510 1509 1508 1508 1507 1506 1505 1504 1503 1502 1501 1500 1499 1498 1497 1496 1496 1495 1494 1492 1491 1490 1488 1487 1486 1485 1484 1483 1482 1481 1481 1480 1479 1478 1477 1476 1476 1476 1475 1475 1475 1475 1475 1476 1476 1476 1477 1478 1479 1480 1481 1481 1482 1483 1484 1485 1487 1488 1489 1491 1492 1493 1495 1497 1499 1501 1503 1505 1507 1508 1510 1512 1514 1517
1509 1509 1509 1509 1509 1509 1509 1509 1510 1510 1510 1510 1509 1508 1508 1507 1507 1506 1504 1503 1502 1501 1500 1499 1498 1498 1497 1496 1496 1494 1492 1491 1490 1489 1488 1486 1485 1484 1483 1483 1482 1481 1480 1479 1479 1478 1477 1476 1476 1475 1474 1474 1474 1474 1475 1475 1475 1476 1477 1478 1479 1479 1480 1480 1482 1483 1484 1485 1486 1487 1489 1490 1491 1493 1494 1496 1498 1499 1501 1504 1506 1508 1510 1513 1515
1509 1509 1509 1509 1509 1509 1509 1510 1510 1510 1510 1510 1509 1509 1509 1508 1508 1507 1505 1503 1502 1501 1501 1500 1499 1499 1499 1498 1496 1495 1493 1491 1490 1490 1488 1487 1486 1485 1484 1483 1482 1481 1481 1480 1479 1478 1477 1476 1475 1474 1474 1474 1474 1474 1474 1474 1475 1475 1476 1477 1477 1478 1478 1479 1480 1481 1482 1483 1484 1485 1487 1488 1489 1490 1492 1494 1496 1497 1499 1502 1504 1506 1509 1511 1513
1509 1509 1509 1510 1510 1510 1510 1510 1510 1511 1510 1510 1509 1509 1510 1509 1509 1508 1506 1505 1504 1503 1502 1501 1501 1500 1500 1499 1497 1496 1494 1493 1492 1491 1489 1488 1487 1485 1484 1483 1482 1482 1481 1480 1479 1478 1477 1476 1475 1474 1474 1473 1473 1473 1473 1473 1474 1474 1475 1476 1476 1476 1477 1477 1478 1479 1480 1481 1482 1483 1484 1485 1487 1488 1490 1492 1494 1496 1498 1500 1502 1504 1506 1508 1510
1509 1510 1510 1510 1510 1510 1510 1511 1511 1511 1511 1511 1510 1511 1511 1511 1510 1509 1508 1507 1506 1505 1504 1503 1502 1502 1501 1500 1499 1497 1495 1494 1494 1492 1491 1489 1488 1486 1485 1484 1483 1482 1481 1480 1479 1478 1477 1476 1476 1475 1474 1474 1473 1473 1472 1473 1473 1473 1474 1474 1475 1475 1475 1476 1477 1478 1479 1479 1480 1481 1483 1484 1485 1487 1488 1490 1492 1494 1497 1499 1500 1502 1504 1506 1508
1510 1511 1511 1511 1511 1511 1511 1512 1512 1512 1512 1512 1512 1512 1512 1512 1511 1510 1510 1509 1508 1507 1506 1505 1504 1503 1503 1502 1500 1499 1497 1496 1495 1494 1492 1491 1490 1488 1487 1485 1483 1482 1481 1480 1479 1479 1478 1477 1476 1475 1475 1474 1474 1473 1473 1472 1472 1473 1473 1474 1474 1474 1474 1475 1476 1476 1477 1478 1479 1480 1481 1483 1484 1485 1486 1488 1489 1492 1494 1496 1498 1501 1503 1505 1508
1510 1511 1511 1511 1511 1512 1512 1513 1513 1513 1513 1513 1513 1513 1513 1513 1513 1512 1512 1511 1510 1509 1508 1507 1506 1505 1504 1503 1502 1500 1498 1498 1497 1495 1494 1492 1491 1490 1488 1486 1485 1483 1482 1481 1480 1479 1478 1477 1476 1476 1475 1475 1474 1473 1473 1473 1472 1472 1473 1473 1473 1474 1474 1474 1475 1476 1477 1477 1478 1479 1480 1481 1483 1484 1485 1486 1486 1488 1491 1494 1497 1500 1503 1506 1508
1511 1511 1512 1512 1512 1512 1513 1514 1514 1514 1514 1514 1514 1514 1514 1514 1514 1514 1514 1513 1512 1511 1510 1509 1508 1507 1506 1505 1503 1501 1500 1500 1499 1497 1495 1494 1492 1491 1490 1488 1487 1485 1484 1483 1482 1481 1479 1478 1478 1477 1476 1476 1475 1475 1474 1473 1473 1473 1473 1473 1473 1473 1474 1474 1475 1476 1476 1477 1478 1478 1479 1480 1482 1483 1484 1485 1485 1486 1490 1494 1497 1500 1502 1505 1508
1511 1512 1512 1512 1513 1513 1514 1515 1515 1515 1515 1516 1516 1516 1516 1516 1516 1516 1515 1514 1514 1513 1512 1511 1510 1509 1508 1506 1505 1503 1502 1502 1501 1499 1498 1496 1495 1493 1491 1490 1489 1488 1487 1486 1484 1483 1482 1481 1480 1479 1478 1478 1477 1477 1476 1476 1475 1475 1474 1475 1475 1475 1474 1475 1476 1477 1477 1477 1477 1478 1478 1479 1480 1482 1483 1485 1486 1487 1490 1493 1496 1499 1501 1503 1506
1511 1512 1512 1513 1514 1514 1515 1515 1516 1516 1516 1517 1517 1517 1517 1517 1517 1517 1517 1516 1515 1515 1514 1513 1512 1511 1510 1508 1507 1505 1504 1504 1503 1502 1501 1499 1498 1496 1494 1493 1492 1490 1489 1488 1487 1486 1485 1485 1484 1483 1481 1481 1480 1480 1480 1479 1478 1477 1477 1477 1477 1477 1477 1478 1478 1478 1478 1478 1478 1478 1479 1479 1480 1481 1482 1483 1485 1487 1490 1493 1495 1497 1500 1502 1505
1511 1512 1513 1514 1515 1515 1516 1516 1517 1517 1518 1518 1518 1518 1518 1518 1518 1518 1518 1518 1517 1517 1516 1515 1514 1513 1511 1510 1509 1508 1507 1506 1506 1505 1504 1502 1501 1499 1498 1496 1494 1493 1492 1492 1490 1490 1489 1489 1488 1487 1486 1486 1485 1485 1484 1483 1482 1481 1481 1480 1479 1479 1481 1482 1481 1481 1481 1481 1480 1480 1480 1480 1481 1482 1483 1483 1485 1487 1490 1493 1494 1497 1500 1502 1504
1512 1513 1514 1515 1516 1516 1516 1517 1518 1518 1519 1519 1519 1520 1520 1520 1520 1520 1519 1519 1519 1519 1518 1517 1515 1514 1513 1513 1512 1511 1510 1509 1509 1508 1506 1505 1504 1502 1501 1499 1498 1497 1496 1495 1494 1493 1493 1492 1492 1491 1491 1491 1491 1489 1488 1487 1485 1485 1485 1484 1482 1483 1485 1486 1486 1485 1485 1484 1483 1483 1483 1483 1482 1483 1485 1485 1486 1487 1490 1493 1495 1497 1500 1502 1503
1513 1514 1516 1517 1517 1517 1518 1518 1519 1520 1521 1521 1521 1521 1521 1521 1521 1521 1521 1521 1521 1520 1520 1518 1517 1516 1516 1515 1514 1513 1512 1511 1511 1510 1509 1508 1506 1505 1504 1502 1501 1501 1500 1499 1498 1497 1496 1496 1495 1496 1496 1495 1494 1493 1491 1490 1489 1488 1488 1487 1486 1487 1490 1490 1489 1489 1488 1487 1487 1487 1487 1487 1486 1487 1487 1487 1487 1488 1491 1493 1495 1498 1500 1501 1503
1514 1516 1517 1518 1518 1519 1519 1520 1521 1522 1522 1522 1523 1523 1523 1523 1523 1523 1523 1523 1522 1522 1521 1520 1519 1518 1518 1517 1516 1515 1514 1514 1513 1512 1511 1510 1509 1508 1506 1505 1504 1504 1503 1502 1501 1500 1500 1499 1499 1500 1499 1498 1497 1496 1495 1493 1492 1491 1490 1490 1491 1492 1493 1492 1492 1491 1491 1490 1490 1490 1490 1490 1490 1490 1490 1489 1490 1491 1493 1494 1496 1498 1500 1501 1503
1516 1517 1518 1518 1519 1519 1520 1521 1522 1523 1523 1524 1525 1524 1525 1525 1525 1525 1525 1525 1524 1524 1523 1522 1521 1520 1519 1519 1518 1517 1517 1516 1515 1514 1513 1512 1511 1510 1508 1508 1508 1507 1505 1504 1504 1503 1503 1503 1503 1503 1502 1501 1500 1499 1498 1497 1495 1494 1494 1494 1495 1495 1495 1494 1494 1493 1492 1492 1492 1491 1491 1492 1492 1492 1492 1492 1493 1495 1496 1497 1498 1499 1500 1502 1503
1516 1518 1518 1519 1519 1521 1522 1523 1524 1525 1525 1526 1527 1526 1526 1527 1527 1527 1527 1527 1526 1525 1524 1524 1523 1522 1521 1521 1520 1519 1519 1518 1517 1516 1515 1514 1513 1512 1511 1511 1510 1509 1507 1506 1507 1507 1507 1507 1507 1506 1505 1504 1503 1502 1500 1499 1498 1498 1498 1498 1498 1498 1497 1496 1496 1495 1494 1494 1493 1493 1493 1493 1493 1494 1494 1495 1496 1497 1498 1499 1500 1501 1501 1502 1503
1517 1518 1519 1520 1521 1522 1523 1524 1525 1526 1527 1527 1528 1528 1528 1528 1529 1529 1529 1528 1527 1526 1526 1525 1525 1524 1523 1523 1522 1522 1521 1520 1520 1519 1518 1517 1516 1515 1514 1513 1513 1511 1510 1509 1510 1510 1510 1510 1510 1509 1508 1506 1506 1504 1503 1502 1502 1502 1501 1501 1500 1500 1499 1498 1498 1497 1496 1495 1495 1495 1495 1496 1496 1496 1497 1497 1498 1499 1500 1501 1501 1502 1503 1503 1504
1518 1519 1520 1521 1523 1524 1525 1526 1527 1528 1528 1529 1529 1529 1530 1530 1530 1530 1530 1529 1529 1528 1527 1527 1526 1526 1525 1525 1524 1524 1523 1523 1522 1522 1521 1520 1519 1518 1517 1516 1516 1515 1513 1513 1513 1513 1513 1513 1512 1511 1510 1509 1508 1507 1506 1506 1505 1505 1504 1504 1503 1502 1501 1501 1500 1499 1498 1498 1498 1498 1498 1499 1499 1499 1500 1500 1501 1501 1501 1502 1502 1503 1504 1504 1505
1519 1520 1522 1523 1524 1525 1526 1527 1528 1529 1530 1530 1531 1531 1531 1531 1531 1531 1531 1531 1530 1530 1529 1529 1528 1528 1527 1527 1526 1526 1526 1525 1525 1524 1524 1523 1522 1522 1521 1520 1519 1518 1517 1517 1517 1517 1516 1516 1515 1514 1513 1512 1511 1510 1509 1509 1509 1508 1507 1506 1505 1504 1504 1504 1503 1502 1502 1502 1502 1502 1502 1503 1503 1503 1503 1503 1502 1502 1503 1503 1504 1504 1505 1505 1506
1521 1522 1523 1525 1526 1527 1528 1528 1529 1530 1531 1531 1532 1532 1533 1533 1533 1532 1532 1532 1532 1531 1531 1531 1531 1530 1530 1529 1529 1528 1528 1527 1527 1527 1527 1526 1525 1525 1524 1523 1523 1522 1521 1521 1521 1520 1519 1519 1518 1517 1516 1515 1514 1513 1513 1512 1511 1510 1510 1509 1508 1508 1508 1507 1507 1506 1506 1506 1506 1506 1506 1507 1506 1506 1505 1505 1504 1505 1505 1506 1505 1506 1506 1507 1507
1522 1523 1525 1526 1527 1529 1529 1530 1531 1531 1532 1533 1533 1534 1534 1534 1534 1534 1534 1534 1534 1534 1533 1533 1533 1532 1532 1532 1531 1530 1530 1529 1529 1529 1529 1529 1528 1528 1527 1526 1526 1525 1525 1524 1524 1523 1522 1521 1520 1520 1519 1518 1517 1516 1515 1515 1514 1513 1513 1512 1512 1512 1511 1511 1510 1510 1510 1510 1510 1510 1510 1509 1509 1508 1508 1508 1508 1508 1508 1508 1508 1508 1509 1509 1509
1524 1525 1526 1527 1529 1530 1531 1531 1532 1532 1533 1534 1534 1535 1536 1536 1536 1535 1536 1536 1536 1536 1536 1535 1535 1535 1534 1534 1533 1532 1531 1531 1531 1532 1532 1531 1531 1530 1529 1529 1528 1528 1527 1527 1527 1526 1525 1523 1522 1522 1521 1520 1519 1518 1518 1517 1517 1517 1516 1516 1515 1515 1514 1514 1513 1513 1513 1513 1513 1512 1512 1512 1511 1511 1511 1511 1510 1511 1511 1511 1511 1511 1512 1511 1511
1525 1527 1528 1529 1530 1531 1532 1533 1533 1534 1535 1535 1535 1536 1536 1537 1538 1537 1537 1538 1538 1538 1538 1537 1537 1537 1536 1536 1535 1534 1533 1534 1534 1535 1534 1534 1533 1532 1532 1531 1531 1531 1530 1530 1529 1528 1526 1525 1524 1524 1523 1522 1522 1521 1521 1520 1520 1519 1519 1519 1518 1518 1517 1517 1516 1516 1517 1516 1516 1515 1515 1515 1514 1514 1514 1513 1513 1513 1513 1514 1514 1514 1514 1514 1514
1527 1528 1530 1531 1532 1533 1534 1534 1535 1536 1536 1537 1537 1537 1537 1538 1539 1539 1539 1540 1540 1540 1540 1539 1539 1539 1539 1537 1537 1537 1537 1537 1537 1537 1536 1536 1535 1535 1534 1534 1534 1533 1533 1532 1530 1528 1527 1527 1526 1526 1525 1524 1524 1524 1523 1523 1522 1522 1522 1521 1520 1520 1520 1519 1519 1520 1520 1519 1519 1518 1518 1517 1517 1517 1516 1516 1516 1516 1516 1516 1517 1517 1516 1517 1517
1528 1530 1531 1532 1533 1534 1535 1536 1537 1537 1538 1538 1539 1539 1539 1539 1539 1540 1541 1542 1542 1542 1542 1541 1541 1541 1540 1540 1539 1539 1539 1539 1539 1539 1538 1538 1538 1537 1537 1536 1536 1535 1535 1533 1531 1530 1529 1529 1528 1528 1528 1527 1526 1526 1526 1525 1525 1524 1524 1523 1523 1522 1522 1522 1522 1523 1522 1522 1521 1521 1520 1520 1520 1520 1519 1519 1519 1519 1519 1519 1519 1519 1519 1519 1520
1530 1531 1533 1534 1535 1536 1537 1538 1538 1539 1539 1540 1540 1541 1541 1541 1541 1541 1542 1543 1543 1543 1543 1543 1543 1543 1542 1542 1542 1541 1541 1541 1541 1541 1540 1540 1540 1539 1539 1538 1537 1537 1536 1534 1533 1532 1532 1531 1530 1530 1530 1529 1529 1529 1528 1527 1527 1526 1526 1525 1525 1525 1525 1525 1525 1525 1524 1524 1524 1524 1524 1523 1523 1523 1523 1522 1522 1522 1521 1521 1522 1522 1522 1522 1522
1533 1534 1535 1536 1537 1538 1539 1539 1540 1540 1541 1541 1542 1542 1543 1543 1543 1543 1543 1544 1544 1545 1545 1545 1545 1545 1544 1544 1543 1543 1543 1543 1543 1543 1543 1542 1542 1542 1541 1540 1539 1538 1537 1536 1535 1535 1534 1534 1533 1533 1533 1532 1532 1531 1531 1530 1529 1529 1528 1528 1528 1528 1528 1527 1527 1527 1526 1527 1527 1526 1526 1526 1526 1526 1525 1525 1525 1524 1524 1524 1524 1524 1524 1524 1524
1535 1536 1537 1538 1539 1539 1540 1541 1541 1541 1542 1543 1543 1544 1544 1545 1545 1545 1545 1545 1546 1546 1546 1546 1546 1546 1546 1546 1545 1545 1545 1545 1545 1545 1544 1544 1544 1544 1544 1542 1541 1540 1539 1538 1538 1537 1537 1536 1536 1536 1535 1535 1534 1534 1533 1532 1532 1531 1530 1530 1530 1530 1529 1529 1529 1529 1529 1529 1528 1528 1528 1528 1528 1528 1528 1528 1527 1526 1526 1526 1526 1526 1526 1526 1526
1537 1538 1539 1540 1540 1541 1541 1542 1542 1543 1543 1544 1545 1545 1546 1546 1547 1547 1547 1547 1547 1547 1547 1548 1548 1548 1548 1547 1547 1547 1547 1547 1547 1547 1546 1546 1547 1546 1545 1544 1542 1542 1541 1541 1541 1540 1540 1539 1539 1538 1538 1537 1537 1536 1536 1535 1534 1533 1533 1532 1532 1531 1531 1531 1531 1531 1531 1531 1530 1530 1530 1530 1530 1530 1530 1530 1529 1529 1528 1528 1528 1528 1528 1528 1528
1538 1539 1540 1541 1542 1542 1543 1543 1544 1544 1545 1546 1546 1547 1547 1548 1549 1549 1549 1549 1549 1549 1549 1549 1549 1549 1549 1549 1549 1549 1549 1549 1549 1549 1548 1548 1548 1548 1546 1545 1545 1544 1543 1543 1543 1543 1542 1541 1541 1540 1540 1539 1538 1538 1537 1537 1536 1535 1535 1534 1534 1533 1533 1533 1533 1533 1533 1533 1532 1532 1532 1532 1532 1532 1532 1532 1532 1531 1531 1531 1530 1530 1529 1529 1529
1539 1540 1541 1542 1543 1543 1544 1544 1545 1546 1546 1547 1548 1548 1549 1549 1550 1550 1550 1550 1550 1550 1551 1551 1551 1551 1551 1551 1551 1551 1551 1551 1551 1551 1550 1550 1549 1549 1548 1547 1547 1546 1545 1545 1545 1544 1544 1543 1543 1542 1542 1541 1540 1540 1539 1538 1538 1537 1536 1536 1535 1535 1535 1535 1535 1535 1535 1534 1534 1534 1534 1534 1534 1534 1534 1534 1533 1533 1533 1533 1532 1532 1532 1532 1531
1540 1541 1542 1543 1544 1544 1545 1545 1546 1547 1547 1548 1549 1550 1550 1551 1551 1551 1551 1552 1552 1552 1552 1553 1553 1553 1553 1553 1553 1553 1553 1553 1553 1552 1552 1551 1551 1550 1549 1549 1548 1547 1547 1546 1546 1546 1545 1545 1544 1544 1543 1542 1542 1541 1541 1540 1539 1539 1538 1538 1537 1537 1536 1536 1536 1536 1536 1535 1535 1535 1535 1535 1535 1535 1535 1535 1535 1535 1535 1534 1534 1534 1534 1534 1533
1540 1542 1543 1543 1544 1545 1546 1547 1547 1548 1548 1549 1550 1551 1551 1552 1552 1553 1553 1553 1553 1553 1554 1554 1554 1554 1554 1555 1555 1555 1555 1554 1554 1553 1553 1553 1552 1551 1551 1550 1549 1549 1548 1548 1547 1547 1546 1546 1545 1545 1544 1544 1543 1543 1542 1541 1541 1540 1540 1539 1539 1538 1537 1537 1537 1537 1536 1536 1536 1536 1536 1536 1536 1536 1536 1536 1536 1536 1536 1536 1535 1535 1535 1535 1535
1541 1542 1543 1544 1545 1546 1547 1548 1548 1549 1549 1550 1551 1552 1552 1553 1554 1554 1554 1554 1555 1555 1555 1555 1556 1556 1556 1556 1556 1556 1556 1556 1555 1555 1554 1554 1553 1553 1552 1551 1551 1550 1549 1549 1548 1548 1547 1547 1546 1546 1545 1545 1544 1544 1543 1543 1542 1542 1541 1541 1540 1539 1539 1538 1537 1537 1537 1537 1537 1537 1536 1536 1536 1536 1536 1536 1537 1537 1537 1537 1536 1536 1536 1536 1536
1541 1542 1543 1544 1545 1546 1547 1548 1549 1549 1550 1551 1552 1553 1553 1554 1555 1555 1556 1556 1556 1556 1556 1557 1557 1557 1557 1557 1557 1557 1557 1557 1557 1556 1556 1555 1555 1554 1553 1553 1552 1551 1551 1550 1549 1549 1549 1548 1547 1547 1546 1546 1545 1545 1544 1544 1543 1543 1542 1542 1541 1541 1540 1539 1538 1538 1537 1537 1537 1537 1537 1537 1537 1537 1537 1537 1537 1537 1537 1537 1537 1537 1536 1536 1536
1541 1543 1544 1545 1546 1547 1548 1549 1550 1550 1551 1552 1553 1554 1554 1555 1556 1556 1557 1557 1557 1557 1558 1558 1558 1558 1558 1558 1558 1558 1558 1558 1558 1558 1557 1557 1556 1555 1555 1554 1553 1552 1552 1551 1551 1550 1550 1549 1549 1548 1548 1547 1547 1546 1546 1545 1544 1544 1543 1543 1542 1542 1541 1540 1540 1539 1538 1538 1538 1537 1537 1537 1537 1537 1537 1537 1537 1537 1537 1537 1537 1537 1537 1536 1536
1541 1543 1544 1545 1546 1547 1548 1549 1551 1552 1552 1553 1554 1555 1555 1556 1557 1557 1558 1558 1558 1559 1559 1559 1559 1559 1559 1559 1559 1559 1559 1559 1559 1559 1558 1558 1557 1557 1556 1555 1555 1554 1553 1553 1552 1551 1551 1550 1550 1549 1549 1548 1548 1547 1546 1546 1545 1545 1544 1544 1543 1542 1542 1541 1541 1540 1539 1539 1538 1538 1538 1537 1537 1537 1537 1537 1537 1537 1537 1537 1537 1537 1537 1536 1536
1541 1543 1544 1545 1546 1547 1548 1550 1551 1552 1553 1554 1555 1555 1556 1557 1557 1558 1558 1559 1559 1559 1559 1560 1560 1560 1560 1560 1560 1559 1559 1559 1559 1559 1559 1559 1558 1558 1557 1557 1556 1555 1555 1554 1553 1553 1552 1551 1551 1550 1550 1549 1548 1548 1547 1547 1546 1545 1545 1544 1544 1543 1542 1542 1541 1541 1540 1539 1539 1538 1538 1537 1537 1537 1537 1537 1537 1537 1536 1536 1536 1536 1536 1536 1535
1542 1543 1544 1545 1546 1547 1549 1550 1551 1552 1553 1554 1555 1556 1556 1557 1558 1558 1559 1559 1559 1560 1560 1560 1560 1560 1560 1560 1560 1560 1560 1560 1559 1559 1559 1559 1559 1558 1558 1557 1557 1556 1556 1555 1554 1554 1553 1552 1552 1551 1550 1550 1549 1548 1548 1547 1547 1546 1545 1545 1544 1544 1543 1542 1542 1541 1540 1540 1539 1539 1538 1538 1537 1537 1536 1536 1536 1536 1535 1535 1535 1535 1535 1535 1534
1542 1543 1544 1545 1547 1548 1549 1550 1551 1552 1553 1554 1555 1556 1556 1557 1558 1558 1558 1559 1559 1559 1560 1560 1560 1560 1560 1560 1560 1560 1560 1560 1559 1559 1559 1559 1559 1558 1558 1557 1557 1557 1556 1556 1555 1554 1554 1553 1552 1552 1551 1550 1550 1549 1548 1548 1547 1547 1546 1546 1545 1544 1544 1543 1542 1542 1541 1540 1540 1539 1538 1538 1537 1537 1536 1535 1535 1535 1534 1534 1534 1534 1534 1534 1533
1542 1543 1545 1546 1547 1548 1549 1550 1551 1552 1553 1554 1555 1556 1556 1557 1557 1558 1558 1558 1559 1559 1559 1559 1559 1559 1559 1559 1559 1559 1559 1559 1559 1559 1559 1558 1558 1558 1558 1557 1557 1557 1556 1556 1555 1554 1554 1553 1553 1552 1551 1551 1550 1550 1549 1548 1548 1547 1547 1546 1546 1545 1544 1544 1543 1542 1542 1541 1540 1539 1539 1538 1537 1536 1536 1535 1534 1534 1533 1533 1533 1532 1532 1532 1532
1542 1544 1545 1546 1547 1548 1549 1550 1551 1552 1553 1554 1555 1555 1556 1556 1556 1557 1557 1557 1558 1558 1558 1558 1558 1559 1559 1559 1559 1559 1558 1558 1558 1558 1558 1558 1558 1557 1557 1557 1556 1556 1556 1555 1555 1554 1553 1553 1552 1552 1551 1551 1550 1550 1549 1549 1548 1547 1547 1546 1546 1545 1545 1544 1543 1543 1542 1541 1540 1540 1539 1538 1537 1536 1535 1535 1534 1533 1532 1532 1531 1531 1531 1530 1530
1542 1544 1545 1546 1547 1548 1549 1550 1551 1552 1553 1554 1554 1555 1555 1555 1556 1556 1556 1556 1556 1557 1557 1557 1557 1558 1557 1557 1557 1557 1557 1557 1557 1557 1557 1557 1557 1556 1556 1556 1555 1555 1555 1554 1554 1554 1553 1553 1552 1552 1551 1551 1550 1550 1549 1548 1548 1547 1547 1546 1546 1545 1545 1544 1543 1543 1542 1541 1540 1539 1539 1538 1537 1536 1535 1534 1533 1533 1532 1531 1530 1530 1529 1529 1528
1542 1544 1545 1546 1547 1548 1549 1550 1550 1551 1552 1553 1553 1553 1554 1554 1554 1554 1555 1555 1555 1555 1556 1556 1556 1556 1556 1556 1556 1556 1556 1556 1556 1556 1556 1556 1555 1555 1555 1555 1554 1554 1554 1553 1553 1553 1552 1552 1551 1551 1550 1550 1549 1549 1548 1548 1547 1547 1546 1546 1545 1545 1544 1544 1543 1542 1542 1541 1540 1539 1538 1537 1537 1536 1535 1534 1533 1532 1531 1530 1529 1528 1528 1527 1527
Wind_Speed
18 20 21 22 22 21 18 15 12 11 11 11 13 14 14 15 14 14 15 17 18 18 19 19 20 20 20 18 17 17 18 19 18 18 18 19 19 18 18 17 16 14 15 15 15 13 14 14 14 14 13 14 14 15 17 16 16 18 18 17 20 25 24 22 22 20 18 15 14 15 18 23 26 28 29 29 27 27 28 27 26 26 26 24 23
19 19 19 18 16 12 10 8 8 9 10 11 12 12 12 13 13 14 16 17 18 18 18 17 18 18 18 17 16 16 17 17 17 17 17 18 18 17 15 15 15 13 13 14 14 13 13 13 13 14 14 14 14 14 17 18 17 17 18 17 17 20 22 22 21 20 18 17 16 16 16 20 25 28 30 30 28 28 30 29 27 26 24 24 23
11 9 9 9 8 6 6 7 8 9 9 10 10 10 10 12 13 15 16 17 18 17 16 16 16 16 17 17 16 15 15 16 15 16 16 17 17 16 13 12 12 12 12 13 12 11 11 11 11 12 12 12 12 13 14 15 15 15 16 17 16 16 19 20 19 18 18 18 18 17 16 18 24 28 30 31 29 28 30 30 28 25 24 24 24
3 2 3 4 4 4 5 7 7 8 8 8 8 9 10 12 14 15 16 17 17 16 16 15 15 15 15 15 15 14 14 15 15 15 15 15 15 15 12 11 10 10 10 9 8 8 8 8 9 9 9 9 10 11 12 13 13 13 14 15 15 15 16 17 17 17 18 19 18 18 16 17 23 27 29 29 27 27 29 28 26 24 25 26 25
1 2 4 5 6 5 6 6 6 6 6 7 8 9 11 13 14 15 15 15 15 14 14 14 13 13 14 14 14 13 13 13 13 13 13 13 13 13 11 10 9 9 8 7 6 6 6 7 7 7 7 7 8 10 12 13 13 13 14 14 13 14 15 16 16 16 17 18 18 18 17 17 22 27 28 28 27 27 27 25 23 22 24 26 26
3 2 3 6 7 6 5 4 3 4 5 7 9 10 11 12 13 13 13 12 13 13 13 12 12 12 13 13 13 13 13 12 12 11 12 12 13 13 11 9 9 8 9 9 7 6 6 6 6 5 4 5 6 7 9 11 12 12 13 13 13 13 14 14 15 16 17 18 19 19 18 18 22 26 27 27 28 28 26 25 23 21 22 26 27
3 2 5 7 7 5 2 2 2 3 5 7 8 9 10 10 11 12 12 13 13 13 12 11 11 11 12 13 13 13 13 11 11 11 12 13 13 14 13 11 10 9 9 9 9 7 6 6 6 5 4 4 5 6 7 8 10 11 12 13 13 13 13 13 15 16 17 18 19 20 19 19 22 26 26 26 27 28 26 26 25 23 22 26 28
2 5 6 7 7 4 3 5 4 5 6 7 7 8 10 11 13 13 14 14 13 12 12 11 10 10 11 12 13 12 11 10 11 12 12 13 13 14 14 13 12 10 9 9 9 8 6 6 6 6 6 5 6 7 7 7 9 11 12 12 13 14 13 13 15 17 17 18 20 20 20 21 23 25 26 26 29 29 27 26 26 25 23 24 26
3 5 6 6 5 2 5 6 6 6 6 7 8 9 11 13 14 14 14 14 13 13 12 11 10 11 12 13 13 11 11 11 12 13 12 12 13 14 14 13 12 12 11 11 10 8 7 6 5 5 5 6 6 7 7 7 8 9 10 11 13 14 14 14 16 18 18 19 20 21 22 23 24 26 28 29 31 31 29 27 25 24 23 24 26
4 5 5 5 2 4 7 7 7 7 7 8 9 10 12 12 14 15 15 15 14 13 13 12 12 13 13 12 12 13 13 14 14 13 12 12 12 12 13 13 12 12 12 11 11 9 8 7 5 5 6 6 6 5 6 7 8 8 8 9 10 12 13 14 16 17 19 19 19 21 23 25 26 27 28 29 31 31 30 28 25 22 25 28 28
3 2 3 3 2 5 7 8 8 8 8 9 10 10 11 12 14 16 16 16 16 15 14 14 13 13 12 12 13 14 16 17 16 16 15 14 13 12 12 12 12 12 11 11 11 10 10 9 8 6 5 5 5 5 5 6 7 7 7 8 9 11 13 14 15 17 18 17 18 19 22 24 25 27 27 29 32 31 29 28 25 24 27 30 29
2 2 2 1 3 7 8 9 9 9 9 10 10 10 11 12 13 15 17 18 17 16 15 14 13 13 12 12 15 18 20 21 20 20 19 18 16 15 13 11 11 11 11 12 12 11 10 10 9 7 5 4 4 4 5 5 5 6 7 8 9 10 12 13 14 14 15 15 16 18 20 22 25 27 28 30 32 32 29 27 25 25 27 29 28
1 1 2 2 6 8 9 9 9 9 10 10 10 10 10 11 12 14 16 17 16 16 16 15 15 16 16 17 19 21 23 22 21 21 20 19 18 17 16 15 14 13 14 14 14 14 13 12 11 10 8 6 5 5 5 5 5 6 7 9 9 9 10 11 13 14 15 15 15 15 16 20 23 25 28 30 32 33 31 28 25 25 25 26 26
1 1 2 5 7 9 10 10 9 9 10 10 10 10 10 11 11 12 13 14 15 17 17 18 19 19 19 19 19 20 22 23 22 21 21 19 18 17 16 17 17 18 18 18 18 17 18 18 17 16 15 12 10 7 6 6 6 6 7 8 9 9 9 11 12 14 15 16 16 16 16 19 21 23 27 30 32 33 31 27 24 22 23 23 23
2 1 3 5 7 9 10 10 10 10 10 10 9 9 9 9 10 10 11 12 14 16 17 18 18 18 18 18 18 20 23 24 24 24 23 20 17 16 17 18 19 20 22 23 23 23 23 23 23 23 23 23 22 19 15 12 9 7 5 4 4 6 7 7 8 11 13 14 15 17 18 19 19 21 25 28 30 29 26 23 21 21 22 23 23
4 4 2 5 7 8 9 10 10 11 10 9 9 9 9 9 9 9 10 11 12 14 15 16 16 17 17 18 19 22 25 26 25 26 25 22 20 20 21 22 22 24 26 27 28 30 30 29 28 28 29 29 28 25 21 15 10 8 6 4 4 4 5 5 4 5 7 9 11 12 14 15 15 15 17 21 24 23 21 21 22 23 24 24 22
6 5 4 5 7 7 9 11 11 10 9 9 9 9 8 8 8 8 9 9 10 11 13 14 16 16 18 20 22 24 26 26 25 26 26 24 23 24 25 25 25 27 28 29 31 33 33 33 32 32 32 31 29 26 22 18 16 14 11 11 11 13 16 15 11 9 6 4 3 4 5 7 8 9 11 15 19 20 22 23 24 24 24 23 21
5 6 6 6 6 7 9 11 11 10 9 8 8 8 8 8 8 8 8 8 9 10 11 12 14 16 19 21 23 24 26 25 24 24 24 23 22 23 24 24 26 28 29 30 31 32 32 32 31 32 32 30 28 27 26 25 25 24 21 21 23 23 22 18 15 14 12 11 10 8 7 6 5 3 6 10 13 18 22 22 20 18 18 20 21
6 8 8 7 6 7 10 12 11 9 8 8 8 8 8 8 8 8 8 8 9 9 10 11 15 18 20 20 21 22 23 23 22 22 22 21 20 20 20 22 25 27 27 27 28 29 29 30 29 29 28 27 26 27 27 27 29 29 28 29 30 28 23 19 18 17 17 17 17 16 15 15 13 8 4 3 5 10 15 16 13 10 11 14 17
8 9 9 7 5 7 11 12 11 10 8 8 8 8 8 8 8 8 9 9 9 10 11 13 15 18 19 19 20 20 21 21 21 21 20 20 19 18 19 21 24 24 24 25 25 26 26 27 27 25 24 24 24 25 26 26 27 27 28 29 30 27 23 21 21 20 20 20 20 20 20 20 18 17 15 12 9 6 5 6 7 7 7 9 12
10 11 10 7 6 8 13 13 12 10 9 8 8 9 9 9 8 9 10 10 11 12 13 14 15 16 17 18 19 20 20 20 20 19 19 19 19 19 20 21 22 22 23 24 24 25 25 25 25 23 21 21 22 23 24 24 24 25 26 27 26 23 21 21 21 20 20 20 20 21 21 20 19 20 19 17 15 11 7 5 4 4 5 7 9
11 10 9 7 8 12 15 14 12 11 10 9 9 10 11 10 10 11 11 11 11 12 13 13 14 16 16 16 17 18 18 18 18 17 17 17 18 18 20 21 20 19 20 22 23 24 24 24 23 22 20 20 21 22 22 23 24 25 25 24 22 20 19 19 18 18 18 19 19 20 21 21 21 21 21 20 19 16 13 11 8 5 4 5 7
12 10 9 9 12 15 15 13 12 11 11 10 9 10 11 10 10 10 10 9 10 11 13 13 13 15 16 17 17 18 18 18 18 18 19 19 19 19 20 20 19 18 20 22 22 22 22 21 21 19 18 18 19 20 20 21 22 23 22 20 20 19 18 18 17 17 17 17 18 19 21 21 21 20 20 20 19 17 16 15 14 11 9 6 2
13 12 13 14 15 16 15 13 12 11 11 10 9 9 10 9 9 9 8 8 9 11 13 13 13 15 17 19 20 21 21 22 23 23 24 23 23 23 22 21 20 20 21 23 22 21 20 19 18 17 17 17 17 18 19 20 21 21 20 19 19 18 18 18 18 17 18 19 20 21 21 21 20 19 18 17 15 14 12 12 12 12 11 11 9
14 14 16 16 16 15 14 13 12 11 12 11 9 9 9 8 8 9 8 8 10 12 14 14 15 17 20 22 23 24 25 25 26 27 27 26 26 26 25 24 23 22 23 24 23 21 21 20 19 19 19 20 20 21 22 23 23 23 22 22 22 22 21 21 20 21 23 24 24 24 24 23 22 21 18 15 13 12 11 9 8 7 6 6 6
15 16 17 16 15 14 13 14 14 13 12 10 9 9 9 8 9 10 10 11 13 15 16 17 18 20 22 24 25 25 25 26 26 26 26 26 26 25 25 24 24 23 23 23 22 22 21 21 21 22 23 24 25 26 26 26 25 25 26 26 26 26 26 26 26 27 27 27 26 26 26 24 23 21 19 18 17 17 17 15 12 10 8 5 4
17 17 16 15 14 14 15 16 15 14 12 11 11 12 12 12 13 14 14 15 16 18 19 19 20 21 22 23 23 23 24 24 24 23 23 23 22 22 22 22 21 21 21 21 21 21 21 21 22 23 23 24 25 26 26 26 26 27 27 27 27 27 27 26 26 27 27 26 25 24 23 22 21 21 20 20 21 21 20 19 19 19 18 15 12
16 16 16 15 15 15 15 14 13 13 14 14 15 16 16 16 16 18 18 17 17 17 18 18 19 19 20 20 20 21 22 22 21 21 20 19 19 19 19 19 18 18 18 18 18 19 19 19 20 21 21 23 24 25 25 25 26 26 25 25 25 25 24 24 25 25 25 23 22 22 21 21 21 21 20 20 20 20 19 18 20 21 19 18 19
16 16 16 16 15 15 14 14 14 15 17 18 18 19 18 17 17 18 18 17 16 16 17 18 18 18 19 19 19 20 22 22 21 19 18 17 18 17 17 17 16 16 16 16 15 15 17 18 20 21 22 23 24 24 24 24 23 24 24 23 23 23 23 24 25 25 24 22 22 22 22 22 23 22 21 21 21 19 17 16 18 19 17 17 19
15 16 16 15 15 15 15 16 17 17 18 18 19 20 19 17 17 17 18 18 17 17 18 19 19 18 19 20 21 22 23 22 20 18 17 18 18 18 18 17 16 16 15 13 13 16 19 21 23 24 24 25 25 24 24 23 22 23 22 22 23 23 23 24 24 24 23 23 22 22 21 22 23 23 23 22 22 20 18 16 16 17 16 16 17
16 17 16 16 16 16 17 18 18 18 18 17 17 19 19 18 18 18 18 19 19 18 19 19 19 19 19 20 22 22 22 20 18 17 17 17 17 18 18 17 16 16 14 12 14 20 23 24 26 26 26 26 26 25 24 23 23 23 22 22 22 23 23 23 23 23 24 24 24 24 24 24 24 24 24 23 22 22 21 19 17 16 16 15 16
17 18 17 17 17 17 17 17 17 16 17 16 15 16 17 18 19 19 19 19 19 19 18 18 18 18 18 18 20 21 20 19 18 17 17 17 17 17 17 17 17 17 14 13 18 23 25 25 26 26 26 26 26 25 24 24 24 23 22 22 22 22 22 22 21 21 22 24 24 24 25 25 25 25 24 24 23 23 22 21 19 17 15 14 15
18 18 18 17 17 16 16 16 15 15 14 14 14 15 15 17 18 19 19 19 18 18 18 18 17 16 16 17 18 19 19 18 18 18 17 16 16 16 16 17 18 17 16 17 22 25 25 25 26 26 25 25 25 24 24 24 23 23 23 23 22 22 21 20 19 19 20 22 22 22 23 23 23 23 23 23 24 24 23 23 20 18 16 14 13
18 18 18 17 16 16 15 15 15 14 14 14 14 14 15 16 17 19 19 19 19 18 17 17 16 16 16 16 16 17 18 18 18 18 17 16 16 15 15 17 18 18 19 21 24 25 24 24 25 24 24 24 24 23 23 23 22 22 22 21 21 21 21 20 20 20 20 20 20 21 21 21 22 22 22 22 23 23 23 22 21 19 17 16 13
19 19 18 17 17 17 16 15 15 15 14 14 14 14 16 17 18 18 18 18 18 18 18 17 17 16 16 16 16 17 17 18 18 17 17 16 16 14 15 17 19 20 22 23 23 24 23 23 23 23 23 23 23 23 23 22 22 21 20 20 20 20 21 21 21 21 20 20 20 20 21 21 22 22 22 21 22 22 23 22 21 19 18 17 16
17 18 18 17 17 17 16 16 15 15 15 15 15 16 17 17 17 17 17 17 17 18 17 17 17 17 17 17 17 17 17 17 17 17 17 17 15 14 16 19 20 21 22 23 22 22 23 22 22 22 22 22 22 22 22 22 22 22 20 19 18 18 19 20 20 19 18 18 19 19 19 20 21 21 21 21 22 22 23 23 21 20 19 18 17
15 16 16 16 15 15 15 15 15 15 15 15 16 17 17 17 16 16 16 16 17 17 17 17 17 17 18 19 18 17 17 17 17 17 17 17 16 16 18 19 20 20 21 21 21 21 21 21 21 21 21 21 22 22 22 22 22 22 21 19 17 16 16 17 16 16 16 16 16 17 17 18 18 19 19 20 20 20 21 21 20 19 18 18 17
13 14 14 14 14 14 14 14 14 14 14 15 16 16 16 16 16 16 16 16 16 16 17 17 17 18 19 19 19 18 17 17 17 17 17 17 17 17 18 18 18 18 19 20 19 19 20 20 20 20 20 20 21 21 22 22 22 22 21 20 18 15 13 13 13 14 14 14 15 15 15 16 16 16 16 17 17 17 18 18 17 16 15 15 15
13 13 13 12 12 12 12 12 12 12 13 14 15 15 15 16 16 16 15 15 15 15 16 17 17 18 19 19 18 18 18 18 18 18 18 18 18 18 18 18 18 18 18 18 18 18 18 18 18 18 18 18 19 19 20 20 21 21 20 20 19 17 15 13 11 10 11 11 12 12 13 13 14 14 14 15 15 15 16 16 16 15 13 12 12
13 13 13 13 12 11 11 10 10 10 11 13 14 14 14 15 15 15 15 15 15 15 16 17 18 18 19 19 18 18 18 19 19 19 19 19 19 19 19 19 19 18 18 17 17 17 17 18 17 17 16 16 17 17 18 18 19 20 20 19 19 18 17 15 13 10 9 8 7 7 8 9 10 11 12 12 13 13 13 14 14 13 12 11 9
13 13 14 13 12 11 10 10 9 9 11 13 14 15 14 14 14 15 15 15 16 16 17 18 18 18 18 19 18 18 18 19 20 20 19 19 19 19 19 19 18 18 18 18 18 18 17 17 17 16 16 15 15 15 16 16 17 18 18 19 19 18 17 16 15 13 11 9 7 5 5 6 7 9 10 10 10 10 10 11 11 11 10 9 8
15 14 14 14 13 12 10 9 9 11 14 16 16 15 15 14 15 15 15 15 16 17 18 18 18 18 18 18 18 17 17 18 18 18 18 19 19 19 19 19 18 17 17 17 17 17 17 17 17 17 16 15 14 14 14 14 15 15 16 16 17 17 17 17 16 15 13 12 10 8 6 5 6 7 8 9 8 8 8 8 8 8 9 8 7
16 15 15 15 14 12 10 9 11 15 18 18 18 17 16 15 15 15 15 15 15 16 17 17 17 17 16 16 16 16 15 15 15 16 16 17 17 18 18 18 18 17 16 16 16 16 16 16 16 16 16 15 14 13 13 13 13 14 14 14 15 15 16 16 16 15 14 13 12 10 8 6 5 6 6 7 6 7 7 8 8 8 9 9 9
15 15 15 14 13 13 11 10 12 16 18 18 17 17 16 15 14 14 13 13 13 14 14 13 13 13 13 13 13 13 13 12 12 13 13 14 15 15 16 17 17 17 17 16 15 15 15 15 15 15 16 16 15 14 13 12 12 13 13 14 14 14 14 15 15 15 15 14 13 11 10 8 6 5 5 5 5 6 7 8 9 10 9 10 10
15 15 15 14 14 13 12 12 13 16 17 16 16 15 14 13 13 12 11 11 11 11 10 10 10 10 9 9 10 10 9 9 9 10 10 11 12 12 13 13 14 15 16 16 15 14 14 14 14 14 15 16 16 15 13 12 12 13 13 14 14 14 14 14 14 14 14 14 14 13 11 10 8 7 6 6 7 7 8 9 10 11 10 10 11
15 14 14 15 14 14 13 14 14 15 15 15 15 14 13 12 11 10 9 9 8 8 7 7 7 7 7 6 6 6 6 6 6 6 7 7 8 9 9 10 11 12 12 13 14 14 14 14 14 14 15 15 16 15 14 13 12 12 13 13 14 14 14 14 14 13 13 13 13 13 13 12 11 9 9 8 8 9 9 10 11 11 11 11 12
13 13 14 15 14 14 14 14 14 14 14 14 14 13 12 11 10 9 8 8 7 6 6 6 6 6 5 4 4 3 3 3 3 3 4 4 5 5 6 7 8 8 9 10 11 11 12 12 13 13 14 14 14 14 14 13 12 12 12 12 13 13 14 14 14 14 14 13 13 13 13 13 12 12 11 10 10 10 10 11 11 12 12 13 13
13 13 14 15 14 14 14 14 13 14 14 14 14 13 12 11 10 9 8 8 7 8 8 7 7 7 6 4 3 2 1 1 1 0 1 1 2 2 3 4 5 5 6 7 8 8 9 10 10 11 12 12 12 13 12 11 11 10 10 11 11 12 13 13 14 14 14 14 14 14 13 13 13 13 12 12 11 11 12 12 12 13 13 14 14
14 14 14 15 16 16 15 14 14 14 14 14 14 13 12 11 11 10 9 9 9 9 9 9 9 9 8 7 6 5 4 4 4 3 3 2 2 1 1 2 3 3 3 4 5 6 7 8 8 9 9 10 10 11 11 10 10 9 9 9 10 10 11 12 13 14 14 14 14 14 14 14 14 14 14 13 13 12 12 12 13 13 13 14 14
15 14 14 15 17 17 16 15 14 14 14 13 13 13 12 13 13 12 12 11 11 10 10 10 10 10 9 9 8 8 7 6 5 5 6 5 4 3 3 3 3 3 2 2 3 4 5 6 7 7 8 8 8 9 9 9 9 9 8 8 8 9 10 11 12 13 14 14 14 15 15 15 15 15 15 14 14 13 13 13 13 13 13 13 14
15 14 14 14 14 14 14 15 15 14 14 14 14 14 14 14 14 14 13 13 12 11 11 11 10 10 10 9 9 10 10 9 8 7 7 7 6 6 5 5 5 5 4 3 2 3 4 4 5 6 7 7 7 7 8 8 8 8 8 8 8 8 8 9 11 12 13 14 14 15 15 15 16 16 16 16 15 15 14 14 13 13 13 13 13
Wind_Direction
269 270 269 266 266 268 271 274 275 282 288 290 294 299 305 310 313 312 312 314 316 317 318 317 315 317 322 323 321 319 320 321 321 321 322 323 322 319 317 314 308 300 296 294 292 291 288 285 281 276 271 268 264 257 253 256 262 253 244 243 236 227 222 221 224 230 235 237 239 238 230 223 220 219 218 220 217 212 211 213 215 214 211 207 207
265 265 262 260 260 259 260 266 272 280 287 291 296 303 311 316 315 313 315 317 319 319 318 316 315 320 327 328 326 325 326 327 328 328 328 327 326 324 319 316 314 308 300 296 297 297 292 286 283 280 276 271 263 253 249 251 257 254 245 242 238 230 227 227 228 231 234 234 235 237 232 223 220 219 219 220 216 212 212 212 213 215 212 208 208
255 256 254 247 240 239 253 270 278 287 297 303 309 315 318 317 315 317 319 320 320 319 317 315 316 321 328 331 332 330 330 331 333 334 332 329 331 331 326 321 323 321 311 301 300 302 298 291 287 284 281 276 263 252 250 252 254 251 245 242 241 234 228 226 226 229 232 234 237 240 237 228 221 220 222 222 216 211 213 214 212 210 207 206 209
206 202 234 248 246 239 250 268 284 304 321 327 329 328 324 320 320 321 320 319 320 318 316 317 318 321 327 333 337 336 335 335 335 337 338 336 335 337 338 339 337 331 324 315 305 302 302 298 295 291 285 275 262 254 256 259 257 251 245 242 239 236 228 219 217 226 234 238 240 241 241 234 224 220 222 224 218 210 210 213 213 211 207 204 208
175 208 229 260 272 262 263 284 308 326 333 336 336 333 329 328 326 324 322 322 321 320 322 325 326 327 333 339 343 345 345 344 342 345 349 348 345 344 344 345 341 335 335 336 324 307 304 305 304 303 298 283 265 259 263 265 260 254 248 242 237 236 230 219 216 227 237 241 241 239 238 234 226 222 222 223 217 206 204 209 213 214 212 209 209
296 273 250 270 282 283 289 314 345 352 346 344 344 341 339 338 337 335 335 334 331 331 335 338 338 340 344 345 347 352 355 355 356 1 4 3 358 355 351 344 338 338 342 347 348 334 316 308 301 303 311 300 278 268 266 263 259 255 249 242 238 236 231 224 222 229 236 239 240 240 237 232 226 222 222 222 215 204 200 204 210 216 216 210 207
294 277 267 277 291 306 335 61 59 24 6 358 356 356 355 357 359 359 356 351 346 341 340 342 345 348 350 353 4 12 13 13 17 20 18 13 9 6 1 352 343 340 340 341 347 349 340 325 311 306 312 303 283 272 264 259 258 255 249 242 239 238 237 232 230 234 237 237 239 239 238 234 227 223 223 221 212 207 205 204 206 214 216 209 204
242 268 278 288 303 334 73 92 68 40 27 20 19 18 18 18 17 14 8 1 355 350 348 351 356 359 6 20 31 32 29 32 35 33 27 21 17 13 8 3 359 354 346 342 343 344 346 338 320 313 313 304 291 281 270 259 255 253 251 248 245 244 245 242 239 239 240 239 240 240 237 234 228 223 224 216 205 206 211 210 211 214 210 204 204
261 278 287 298 314 40 88 84 68 60 52 45 41 35 34 32 26 21 15 10 9 7 6 10 18 26 38 46 41 32 35 42 41 36 30 26 23 17 12 10 10 8 3 358 355 350 346 338 319 303 300 298 295 291 283 271 263 260 259 258 255 252 249 244 239 237 238 239 239 237 235 234 227 221 222 216 207 208 210 209 215 217 205 200 205
298 285 282 299 343 87 93 87 83 80 70 59 51 45 43 40 32 27 25 26 28 28 28 34 43 51 57 51 35 32 40 43 39 33 29 27 25 20 15 13 12 13 9 6 7 8 1 350 333 311 299 294 290 287 284 277 270 265 263 263 263 260 255 247 239 237 239 239 238 235 233 234 231 225 224 218 212 213 211 207 212 214 204 202 206
321 319 306 322 71 106 103 100 95 85 74 63 55 50 47 44 40 38 40 43 45 47 49 52 59 66 61 42 36 43 48 45 40 34 30 27 24 20 14 11 10 12 11 9 9 10 7 3 355 337 318 306 295 282 277 275 268 262 260 260 261 260 258 254 248 244 243 241 240 239 238 239 236 232 228 221 214 215 213 208 209 208 204 205 204
356 353 312 322 118 118 112 107 98 84 74 64 56 53 51 51 51 52 55 57 57 59 62 62 65 70 64 54 56 59 56 50 45 39 36 34 31 28 23 19 15 16 20 21 18 16 17 17 12 2 348 331 315 296 283 278 269 261 260 260 257 252 249 249 249 250 248 245 243 243 245 246 242 237 232 225 218 214 211 209 208 206 206 209 206
25 269 243 144 123 123 118 110 97 84 74 65 59 59 58 58 59 60 62 65 69 72 74 76 76 75 72 68 65 62 56 50 42 37 36 35 33 34 36 38 40 41 39 37 36 37 40 38 31 23 11 355 334 309 293 289 278 259 253 257 256 251 247 246 248 250 250 250 252 253 251 250 248 245 239 230 223 217 211 206 205 206 209 214 214
70 212 171 132 125 128 123 111 97 85 76 69 66 65 62 59 60 63 65 72 80 82 81 82 81 79 75 70 65 60 55 48 41 37 34 32 31 34 40 45 50 51 48 46 46 47 49 48 43 39 37 35 29 12 349 339 329 295 259 249 247 245 245 246 246 247 245 244 248 252 252 250 251 250 241 230 226 221 210 200 200 205 209 215 219
143 151 132 130 133 133 125 113 100 89 79 72 70 67 62 61 64 67 68 74 82 84 81 79 78 76 73 68 64 60 55 48 44 41 39 37 38 42 48 52 55 57 58 57 56 56 56 57 55 53 53 51 47 40 32 22 9 346 306 273 265 260 255 255 257 254 249 245 244 245 247 248 250 250 243 232 225 219 207 197 198 204 208 211 216
161 166 144 135 137 132 125 118 106 92 81 74 73 68 63 64 66 67 70 76 83 84 80 76 73 71 69 64 61 60 56 51 49 48 47 50 53 57 61 63 65 67 67 65 64 62 60 60 61 60 58 54 49 42 34 28 27 23 21 30 21 13 32 32 345 291 266 256 251 247 248 249 249 250 250 240 227 213 200 198 204 210 212 210 211
146 157 147 132 133 127 123 121 111 97 87 80 76 71 66 66 68 71 76 82 87 82 75 73 71 69 66 62 59 60 60 57 53 51 52 55 59 62 66 69 70 70 67 65 64 63 61 59 58 59 58 57 56 52 45 43 48 50 55 65 65 60 61 58 43 24 7 339 306 281 270 268 260 248 243 242 230 207 195 201 211 216 217 214 212
130 142 136 128 132 132 129 124 114 103 96 88 81 76 71 70 74 81 82 82 83 77 70 71 73 69 65 62 60 60 61 59 54 50 49 50 53 57 62 66 68 67 65 65 65 65 63 60 58 57 59 61 62 63 63 61 63 63 63 67 68 64 62 61 59 56 54 56 56 47 37 28 3 294 238 234 224 206 201 210 219 221 221 221 219
135 137 136 136 140 138 131 125 116 107 99 91 86 81 78 78 82 88 91 90 88 84 79 76 76 73 69 65 62 60 60 58 53 49 47 46 47 50 56 63 66 65 65 67 68 68 67 64 61 60 61 63 64 66 66 65 66 66 64 63 63 62 59 58 60 63 65 66 66 63 63 65 60 57 76 129 168 186 198 210 220 226 230 230 228
134 135 138 144 144 131 125 122 115 106 98 93 89 85 82 85 89 92 96 98 98 95 89 83 79 78 75 71 66 62 60 60 57 53 50 49 49 51 55 62 65 64 65 67 69 69 67 65 64 63 63 64 64 63 64 64 65 65 62 60 61 61 59 56 55 55 56 59 63 65 66 69 72 75 78 77 77 95 153 188 207 223 228 231 233
130 136 142 151 148 128 123 121 116 109 103 96 92 91 89 91 94 96 99 103 104 99 92 85 82 80 77 73 71 66 62 60 59 56 54 55 55 55 57 62 64 65 65 65 65 65 63 62 62 60 58 60 59 58 58 59 60 60 59 59 60 60 57 54 53 52 54 57 60 62 62 62 64 69 70 68 64 64 80 114 150 192 206 218 232
127 135 146 156 145 128 124 123 119 113 107 101 98 100 100 99 99 100 102 104 101 95 90 86 84 84 81 77 74 71 67 64 61 59 58 59 59 59 60 65 67 68 68 66 63 62 61 60 60 57 52 53 54 53 53 54 55 57 57 58 58 56 53 52 50 48 50 52 54 56 56 53 53 55 57 59 61 60 63 74 86 105 142 185 214
134 142 151 149 137 129 128 127 123 117 112 110 108 107 106 105 104 103 103 102 96 91 90 90 90 90 88 84 81 79 76 72 70 67 64 63 62 62 64 66 66 65 67 68 66 65 63 61 60 57 51 49 51 52 51 50 52 56 56 55 55 53 52 52 49 48 50 51 52 53 51 48 47 47 46 48 51 51 50 53 57 62 69 74 95
138 141 140 136 131 130 131 128 124 122 119 118 115 110 108 108 105 103 101 98 95 94 95 95 94 93 91 88 85 82 79 76 73 70 68 66 65 64 64 64 63 63 65 67 67 66 65 65 63 59 56 55 55 55 55 54 55 57 56 55 55 54 54 54 53 53 55 54 52 52 50 46 44 44 41 38 37 38 39 39 40 43 44 43 38
140 136 131 129 130 130 129 126 124 123 122 120 115 110 111 110 108 107 105 101 99 99 100 98 96 94 93 90 86 83 80 77 74 70 68 67 66 66 65 65 64 64 67 69 69 69 70 70 69 67 66 67 66 65 64 63 63 62 60 59 59 59 59 60 59 58 58 57 55 54 52 49 46 45 43 39 37 37 35 31 27 19 16 22 25
141 134 131 131 132 132 130 129 128 126 123 121 116 114 115 115 113 110 106 103 101 100 99 98 96 95 93 90 87 83 80 77 73 69 66 65 65 64 65 66 66 68 71 74 75 75 74 73 71 70 69 69 68 68 68 66 65 64 63 61 61 62 62 63 62 62 61 61 60 59 58 56 54 52 51 51 52 53 51 48 46 43 37 30 13
139 136 137 136 136 137 136 134 133 131 128 125 122 119 119 117 113 108 103 101 99 98 97 95 93 92 90 89 87 85 82 79 75 70 67 64 63 63 63 64 65 67 71 74 74 74 73 72 72 71 70 69 68 68 67 66 64 63 63 62 62 62 63 62 62 62 62 60 60 59 58 57 56 54 53 53 53 56 57 56 58 58 56 55 58
139 139 141 139 138 139 138 137 137 135 131 128 125 121 118 115 111 105 100 97 96 96 95 93 91 90 89 89 89 87 84 81 77 74 71 67 66 63 61 61 61 63 68 72 74 76 77 75 73 72 70 69 67 66 65 63 63 63 64 64 65 64 63 63 61 60 59 58 58 57 55 55 55 53 52 53 53 54 55 55 58 59 57 58 63
140 140 140 140 141 141 140 140 140 137 134 131 127 121 116 112 109 105 101 97 94 93 94 92 92 93 93 90 87 86 84 80 76 76 76 74 71 68 64 63 63 66 72 77 80 81 79 75 72 69 67 66 65 65 64 63 63 64 64 64 64 63 60 58 56 55 54 52 52 51 49 49 52 52 52 53 53 53 52 51 52 53 52 56 64
141 141 141 142 144 144 143 142 141 139 137 135 130 124 118 112 108 105 102 100 97 95 94 92 90 91 91 89 85 81 79 78 77 76 76 75 74 73 71 69 68 70 75 78 78 75 72 70 68 66 65 65 65 64 64 64 64 64 64 64 63 61 58 57 55 53 52 52 51 51 48 47 48 48 49 51 53 54 55 53 50 49 52 60 67
141 141 143 144 145 145 144 143 142 141 139 136 132 128 123 117 111 105 102 100 98 95 92 90 88 86 86 87 85 82 80 80 79 77 75 75 76 76 76 74 73 73 73 71 69 69 68 66 65 63 62 62 62 61 61 61 62 62 62 62 61 59 57 58 57 55 54 55 54 54 54 53 51 50 50 52 54 55 56 57 53 50 54 63 68
138 140 143 143 144 145 145 144 144 144 140 137 134 130 126 121 114 106 101 98 96 93 89 86 84 83 84 86 87 87 85 82 78 74 73 72 72 74 75 75 73 72 70 67 68 69 67 65 64 62 60 59 59 58 57 58 58 59 59 59 58 57 56 57 58 57 57 56 55 56 58 58 55 53 53 54 55 56 56 57 57 54 56 60 63
135 137 141 143 144 146 147 146 146 144 140 136 132 128 124 120 115 110 106 101 97 93 89 84 81 81 82 84 86 86 85 82 77 73 71 68 67 68 71 72 72 70 68 68 69 69 67 64 63 62 60 59 57 55 54 54 53 54 55 56 57 58 59 60 62 62 60 59 57 57 59 59 56 53 53 54 55 55 54 55 56 56 55 55 55
131 132 135 138 139 140 141 141 140 138 135 132 129 124 120 116 113 112 110 107 103 98 92 86 82 81 81 81 82 82 82 81 78 74 71 68 67 67 70 73 74 70 67 67 69 68 67 65 64 62 61 60 58 56 55 53 51 51 52 53 55 58 61 63 65 65 64 64 62 60 60 60 57 54 52 52 52 52 53 54 55 56 56 53 49
131 130 131 132 132 130 129 129 129 128 127 126 124 120 117 115 113 111 108 106 104 101 96 91 86 83 82 83 83 80 77 75 74 73 72 71 69 70 72 73 72 70 68 67 67 67 67 66 65 64 63 61 59 57 55 54 53 52 50 51 52 54 58 61 63 64 65 65 63 60 60 60 57 52 49 50 50 49 50 51 54 56 59 58 54
131 130 130 128 126 123 122 124 124 124 124 123 121 119 117 115 113 109 105 101 100 98 97 94 90 87 87 87 86 83 79 77 77 77 78 77 77 76 73 71 69 69 68 66 64 65 65 65 65 64 63 62 60 58 56 55 54 53 52 52 52 53 56 60 62 63 64 64 62 59 58 58 55 49 46 46 48 47 46 46 48 52 55 57 57
134 133 132 129 124 121 121 124 125 126 127 125 122 121 118 114 110 107 103 101 99 97 96 96 94 93 92 91 90 88 85 82 82 81 81 80 77 72 69 68 67 67 67 65 63 62 62 63 64 63 62 62 60 58 56 54 52 51 50 51 53 56 60 64 65 66 66 66 65 62 59 55 52 47 44 43 45 44 43 42 44 47 50 51 52
140 137 136 133 128 123 120 123 127 129 130 127 125 124 121 114 110 107 105 103 100 100 100 100 97 95 95 94 93 91 88 84 83 81 78 76 72 68 66 65 64 64 64 63 62 60 60 62 62 61 61 61 59 58 56 54 52 51 50 50 52 57 62 68 72 72 72 71 70 67 62 55 50 47 43 41 43 44 42 39 41 45 48 50 50
153 147 144 141 135 127 121 120 124 131 134 132 130 128 124 117 113 111 110 108 106 106 107 107 102 97 95 94 93 91 89 87 83 79 76 73 69 66 65 65 64 64 63 61 59 58 57 58 60 60 59 58 57 57 56 54 53 52 51 50 51 54 57 62 68 71 73 74 72 67 60 53 47 43 39 37 39 41 37 34 36 40 44 46 48
168 159 155 151 146 137 128 122 124 133 139 137 133 130 127 122 118 116 114 112 112 112 113 112 108 103 100 98 95 91 88 84 81 78 74 70 67 65 64 64 64 64 63 61 59 56 54 54 55 56 56 56 55 54 53 53 52 51 49 48 47 48 49 52 54 58 63 67 66 61 54 46 37 31 29 30 32 31 27 25 26 29 33 36 37
179 170 164 161 158 152 141 129 127 135 140 139 134 132 131 129 125 121 118 117 117 117 118 117 114 109 105 102 97 91 85 81 78 75 71 67 64 62 61 60 61 62 63 62 60 56 53 51 50 50 49 50 50 50 50 49 49 48 47 46 44 43 43 43 43 45 47 47 45 44 40 33 28 26 25 25 24 22 20 20 17 13 11 14 18
182 178 173 169 168 164 154 141 137 141 142 139 136 133 132 132 129 125 122 119 119 119 119 118 115 111 107 102 97 91 85 79 75 72 69 65 62 60 59 58 58 59 60 61 60 57 54 51 49 48 46 44 43 44 45 46 46 46 45 43 42 40 39 38 37 36 35 35 35 34 30 25 26 26 23 19 18 16 15 15 13 4 356 353 353
180 179 177 175 173 170 163 154 148 145 142 139 136 134 134 133 132 129 126 123 120 119 119 117 114 112 109 105 100 95 87 80 74 70 67 63 61 59 58 58 57 57 58 58 57 56 54 51 49 47 45 43 41 40 39 40 41 42 41 40 39 37 36 35 34 32 30 28 26 26 24 21 17 15 12 9 7 4 359 357 358 356 353 351 346
179 178 177 176 174 171 170 165 155 149 146 141 139 139 138 137 137 135 132 129 127 124 123 121 118 115 112 108 104 99 93 85 77 70 66 62 59 57 57 57 58 58 58 57 56 55 53 50 47 45 44 44 43 42 39 38 38 38 38 37 36 35 33 32 31 30 29 26 22 18 14 9 2 356 351 348 343 340 337 337 340 342 346 350 352
178 175 173 172 172 171 171 167 161 159 157 153 150 150 149 147 146 145 143 142 140 137 134 132 128 123 119 114 109 104 98 92 82 72 66 62 58 55 54 54 55 57 57 58 58 57 54 50 46 43 42 42 42 42 42 40 38 37 36 35 33 32 31 29 27 26 25 24 21 17 11 3 353 342 330 319 313 314 316 319 324 329 334 341 347
176 172 169 169 169 170 171 170 169 171 171 167 163 162 162 160 160 159 158 158 158 156 153 150 146 142 136 126 117 109 102 96 89 78 69 63 58 54 51 49 50 51 53 55 58 58 57 54 49 44 41 40 40 40 41 40 38 37 35 33 31 30 28 27 26 25 22 20 18 16 12 6 357 345 332 321 312 308 307 309 312 318 322 327 333
179 174 171 170 169 169 172 174 176 179 182 180 178 177 175 176 177 177 178 180 183 184 185 184 177 171 164 153 143 130 109 98 94 84 73 65 58 51 45 42 42 42 43 47 51 54 54 54 51 46 42 39 37 37 37 36 35 34 32 31 30 28 27 26 25 24 22 20 17 13 10 6 1 353 342 331 321 313 309 306 305 306 308 311 316
185 179 176 176 176 176 177 178 179 181 184 187 189 189 190 193 196 196 196 200 202 202 205 208 206 203 203 201 198 200 211 229 241 281 33 53 52 43 33 28 28 30 32 36 39 41 43 45 44 42 39 36 33 32 31 29 27 26 24 24 23 22 21 20 19 18 18 17 15 13 10 6 2 357 351 342 331 321 313 306 302 300 300 301 304
188 184 182 184 186 186 184 182 181 183 185 190 194 198 203 208 212 215 217 219 220 219 219 220 220 222 225 229 232 239 248 258 267 274 276 278 284 299 335 349 354 358 11 22 25 27 30 32 31 31 30 28 26 24 23 22 21 18 14 12 13 13 14 15 14 13 11 10 10 9 8 5 2 358 353 348 341 332 323 313 306 302 299 298 298
183 183 184 187 190 192 193 193 193 194 197 202 207 213 218 221 223 224 225 225 227 229 231 232 233 235 238 242 247 250 254 259 266 268 266 267 267 267 279 301 309 307 313 341 4 12 16 18 18 18 17 16 15 15 13 12 10 8 5 3 2 5 8 10 10 9 9 7 6 5 4 2 0 357 354 350 345 340 332 324 317 311 306 301 298
182 183 184 188 192 195 199 202 205 209 215 220 224 227 230 233 235 236 236 235 235 235 238 241 242 244 246 249 252 252 252 255 256 254 252 256 259 261 270 284 289 285 280 282 299 331 349 357 2 5 4 2 2 2 2 1 360 357 355 355 354 356 1 4 4 4 5 5 4 3 2 360 357 354 351 349 346 342 337 331 324 317 312 307 303